Date,TemperatureHighF,TemperatureAvgF,TemperatureLowF,DewpointHighF,DewpointAvgF,DewpointLowF,HumidityHigh,HumidityAvg,HumidityLow,PressureMaxIn,PressureMinIn,WindSpeedMaxMPH,WindSpeedAvgMPH,GustSpeedMaxMPH,PrecipitationSumIn
2012-1-25,79.3,79.3,79.3,67.0,67.0,67.0,66,66,66,30.00,30.00,5,5,0,0.00
2012-1-27,77.0,74.6,72.4,69.8,67.7,66.6,88,79,71,30.06,30.02,5,1,9,0.00
2012-1-28,81.8,74.6,68.9,71.5,67.9,65.5,91,80,59,30.10,29.99,7,2,14,0.07
2012-1-29,81.9,73.2,70.5,70.0,68.6,66.6,94,86,60,30.10,30.00,12,1,15,0.06
2012-1-30,79.1,73.9,71.1,72.0,66.9,-99.9,93,82,74,30.05,29.96,10,-17,15,0.11
2012-1-31,81.8,76.0,70.3,71.0,69.5,68.0,95,81,65,30.07,29.97,13,4,18,0.27
2012-2-1,80.7,76.0,71.2,72.3,69.8,68.1,90,81,70,30.06,29.97,7,3,11,0.08
2012-2-2,80.5,74.1,69.5,73.0,70.1,68.0,96,87,71,30.03,29.92,7,1,14,0.26
2012-2-3,76.4,70.9,70.2,70.0,65.0,-99.9,95,87,79,29.99,29.92,4,-25,11,0.10
2012-2-4,76.3,71.3,70.9,71.0,67.1,-99.9,95,89,78,29.99,29.93,6,-13,15,0.26
2012-2-5,84.3,77.0,68.2,70.8,66.7,-99.9,95,75,58,29.99,29.90,12,3,15,0.26
2012-2-6,83.1,72.8,67.5,75.0,68.4,65.0,94,86,66,30.04,29.93,13,1,15,0.07
2012-2-7,82.4,74.7,67.9,72.0,69.5,66.0,96,84,65,30.02,29.92,9,2,15,0.29
2012-2-8,83.0,75.3,71.0,74.0,70.4,68.0,95,85,68,30.00,29.89,10,2,15,0.14
2012-2-9,85.6,77.0,70.1,74.0,70.4,68.0,96,81,56,30.01,29.90,12,2,16,0.16
2012-2-10,87.8,76.8,68.9,73.0,69.5,67.0,94,79,54,30.02,29.92,8,2,13,0.00
2012-2-11,90.0,77.9,67.3,72.0,68.1,65.0,93,74,47,29.98,29.89,10,2,12,0.00
2012-2-12,90.3,77.8,68.7,71.0,66.6,63.5,92,70,43,29.97,29.87,9,1,11,0.00
2012-2-13,86.3,76.2,68.1,71.0,67.7,64.0,92,76,56,29.97,29.87,11,1,11,0.00
2012-2-14,80.3,75.4,72.2,73.0,70.6,69.0,93,85,69,30.02,29.91,9,2,14,0.12
2012-2-15,82.4,75.1,70.2,72.0,70.2,69.0,95,85,66,30.06,29.97,10,2,13,0.08
2012-2-16,82.0,74.7,70.9,73.0,70.2,69.0,96,86,66,30.04,29.95,8,1,11,0.32
2012-2-17,82.5,76.3,70.6,71.0,68.6,66.0,93,78,60,29.99,29.92,9,2,11,0.01
2012-2-18,83.5,75.4,68.0,70.0,68.2,65.0,95,80,56,29.98,29.91,8,2,10,0.00
2012-2-19,84.4,76.2,66.7,71.0,67.6,64.0,93,76,58,29.99,29.90,8,2,14,0.00
2012-2-20,85.8,74.8,65.4,68.1,65.3,62.0,93,74,49,30.02,29.91,12,2,13,0.00
2012-2-21,83.7,74.9,66.6,71.0,68.3,64.0,92,80,62,30.04,29.95,10,2,14,0.00
2012-2-22,83.2,77.1,69.3,71.0,69.2,66.0,93,77,58,30.04,29.93,13,3,14,0.00
2012-2-23,86.2,78.0,70.3,72.0,70.2,67.0,91,77,60,30.04,29.94,12,3,13,0.00
2012-2-24,84.7,77.7,71.9,72.0,70.0,66.0,94,78,55,30.05,29.94,13,3,15,0.21
2012-2-25,83.9,77.3,68.7,72.0,69.9,66.0,91,78,64,30.05,29.95,10,2,15,0.01
2012-2-26,82.6,76.9,71.6,71.0,69.7,68.0,94,79,62,30.08,29.99,13,3,16,0.10
2012-2-27,83.6,77.9,71.6,72.0,69.0,67.0,91,74,58,30.12,30.02,13,4,15,0.28
2012-2-28,83.6,76.6,70.8,73.0,69.6,66.0,93,79,61,30.07,29.97,10,3,14,0.27
2012-2-29,82.8,75.9,68.1,70.0,68.8,66.0,95,79,62,30.07,29.97,10,3,15,0.20
2012-3-1,80.3,73.7,69.0,73.0,70.2,67.0,94,89,74,30.05,29.96,11,2,16,1.63
2012-3-2,84.7,75.6,67.4,73.0,70.0,66.0,96,84,54,30.04,29.97,13,2,17,0.13
2012-3-3,86.1,76.4,71.2,73.0,70.6,68.0,96,83,58,30.03,29.95,13,2,16,0.34
2012-3-4,86.3,77.5,69.4,73.0,69.7,67.0,94,78,60,30.05,29.95,11,3,16,0.03
2012-3-5,84.9,76.9,68.4,73.0,69.2,66.0,92,78,59,30.09,29.98,11,2,16,0.02
2012-3-6,83.5,76.6,71.1,71.0,68.5,64.0,94,77,55,30.10,29.99,11,4,17,0.25
2012-3-7,80.9,76.2,70.7,71.0,68.6,65.7,94,78,61,30.09,30.00,21,6,21,0.49
2012-3-8,81.8,74.9,69.1,70.0,68.3,66.0,93,80,63,30.07,29.96,14,3,19,0.57
2012-3-9,84.5,77.2,68.2,71.0,68.8,66.0,94,76,56,30.02,29.91,10,3,15,0.23
2012-3-10,82.9,76.1,68.1,72.0,69.8,66.0,92,81,65,30.02,29.94,6,2,10,0.04
2012-3-11,84.1,76.5,67.5,72.7,69.6,66.0,95,80,59,30.05,29.97,12,3,15,0.16
2012-3-12,80.3,74.7,70.1,72.0,68.8,66.2,96,82,71,30.04,29.97,11,2,17,0.05
2012-3-13,82.6,75.3,66.6,71.0,67.9,65.0,94,79,60,30.04,29.95,11,3,14,0.00
2012-3-14,83.7,77.1,70.4,73.0,69.9,67.0,94,79,61,30.08,29.95,14,4,21,0.14
2012-3-15,83.1,76.4,67.2,70.0,68.0,65.0,92,76,60,30.06,29.96,13,4,16,0.00
2012-3-16,86.1,77.5,69.4,70.0,66.6,59.0,91,71,41,30.03,29.92,10,2,14,0.00
2012-3-17,84.1,78.1,68.8,71.0,68.1,64.0,89,72,53,30.03,29.91,12,3,15,0.00
2012-3-18,84.3,76.5,68.3,71.0,68.9,65.0,91,78,58,30.00,29.90,8,2,12,0.00
2012-3-19,83.6,76.5,69.5,72.0,69.1,66.0,95,79,57,29.96,29.87,9,2,11,0.24
2012-3-20,84.1,76.4,69.3,72.0,68.9,67.0,92,78,60,29.96,29.87,12,2,15,0.00
2012-3-21,83.0,75.7,69.0,72.0,69.3,66.0,94,81,63,29.99,29.90,11,3,14,0.83
2012-3-22,80.1,72.9,69.9,72.0,70.3,69.0,96,91,75,29.98,29.89,10,1,12,0.58
2012-3-23,81.4,74.5,70.9,73.0,70.5,68.0,97,88,71,29.95,29.85,15,3,15,1.98
2012-3-24,81.9,74.5,69.7,72.0,70.7,69.0,97,88,69,29.97,29.88,11,2,13,0.32
2012-3-25,81.5,74.8,71.8,74.0,71.7,70.0,96,90,76,29.97,29.89,9,1,11,1.84
2012-3-26,90.1,78.9,70.7,75.0,71.1,67.0,96,78,56,29.94,29.83,11,2,13,0.00
2012-3-27,87.8,78.0,71.7,74.0,71.6,70.0,94,81,60,29.98,29.87,8,1,11,0.02
2012-3-28,82.8,77.0,72.0,74.0,71.5,70.0,96,84,68,29.97,29.89,11,3,17,0.09
2012-3-29,79.7,75.3,71.3,73.3,71.9,70.0,95,89,80,29.99,29.89,8,2,22,3.16
2012-3-30,83.3,75.3,71.1,75.1,72.2,69.9,97,90,73,30.02,29.91,7,2,12,0.09
2012-3-31,84.6,77.3,71.3,74.1,71.1,69.0,96,82,67,30.04,29.93,10,3,18,0.03
2012-4-1,91.0,81.0,68.1,72.0,69.3,66.0,94,70,50,29.98,29.82,7,2,14,0.00
2012-4-2,91.0,80.9,71.1,71.0,69.7,67.0,91,70,46,29.91,29.79,10,2,13,0.00
2012-4-3,91.6,79.9,71.8,75.0,71.1,69.0,92,76,50,29.92,29.82,5,1,13,0.00
2012-4-4,85.0,77.0,70.6,73.0,70.5,67.5,90,81,66,29.92,29.84,8,2,12,0.00
2012-4-5,90.1,80.6,73.5,73.0,71.2,68.0,92,74,49,29.92,29.83,8,2,11,0.00
2012-4-6,91.3,80.4,71.2,73.0,70.2,68.0,92,73,47,29.93,29.83,8,1,12,0.00
2012-4-7,86.8,78.0,70.9,76.0,71.5,68.0,91,81,58,29.96,29.86,6,1,8,0.21
2012-4-8,85.0,78.6,70.7,76.2,71.7,68.6,94,80,66,29.93,29.84,6,2,12,0.10
2012-4-9,82.7,75.0,71.3,74.4,72.0,69.0,95,90,75,29.91,29.83,5,1,11,0.77
2012-4-10,88.4,76.0,70.2,75.0,71.0,69.0,96,85,57,29.94,29.84,4,0,8,0.18
2012-4-11,91.8,80.8,69.9,74.0,70.8,68.3,95,73,52,29.97,29.86,6,2,14,0.00
2012-4-12,92.4,79.1,71.4,75.0,71.3,69.0,93,79,51,29.95,29.84,10,2,14,2.37
2012-4-13,90.2,78.8,72.8,75.0,72.9,70.0,95,83,54,29.96,29.88,7,1,10,0.12
2012-4-14,81.7,76.3,72.6,74.0,72.2,69.0,96,87,76,29.99,29.89,11,4,16,0.47
2012-4-15,81.7,77.2,74.6,70.0,65.3,61.9,80,67,53,30.05,29.93,14,6,17,0.00
2012-4-16,82.2,77.2,74.6,65.0,62.9,60.0,69,62,50,30.04,29.95,13,4,17,0.00
2012-4-17,83.7,77.3,69.1,68.0,65.2,62.0,80,67,54,30.00,29.93,15,4,16,0.00
2012-4-18,82.7,75.9,67.9,67.0,64.9,63.0,88,70,54,29.99,29.89,9,2,12,0.00
2012-4-19,83.2,74.9,65.2,66.0,64.3,62.0,90,71,51,29.95,29.86,12,2,14,0.00
2012-4-20,84.2,77.2,67.8,72.0,68.8,65.0,90,76,64,29.92,29.83,11,3,15,0.00
2012-4-21,85.8,78.4,70.6,76.0,72.8,68.0,91,83,69,29.91,29.81,12,2,15,0.07
2012-4-22,89.0,80.4,73.1,77.0,74.0,71.0,93,82,64,29.93,29.81,6,2,11,0.86
2012-4-23,91.6,84.1,76.0,76.0,74.4,73.0,91,73,59,29.89,29.80,9,3,15,0.00
2012-4-24,91.5,84.0,75.8,76.0,73.6,72.0,88,72,58,29.89,29.80,10,3,16,0.00
2012-4-25,89.3,81.7,75.9,76.0,73.8,72.0,88,77,60,29.97,29.84,9,2,13,0.33
2012-4-26,88.1,80.5,73.3,76.0,73.5,70.0,92,80,60,29.98,29.89,15,4,18,0.17
2012-4-27,86.4,79.9,73.9,75.0,72.6,71.0,93,79,63,29.99,29.91,8,2,17,0.13
2012-4-28,87.5,79.2,73.2,75.0,70.9,64.0,91,77,45,29.97,29.90,13,3,16,0.35
2012-4-29,85.8,78.2,71.6,74.0,71.9,69.0,95,82,63,29.98,29.90,13,3,15,0.06
2012-4-30,84.1,78.9,72.3,74.0,71.6,69.0,90,79,61,29.96,29.88,8,2,12,0.09
2012-5-1,85.4,79.0,70.6,75.0,71.4,68.0,91,78,64,29.95,29.87,11,3,17,0.01
2012-5-2,82.5,76.7,74.6,76.0,74.1,73.0,96,91,77,29.95,29.85,8,2,12,3.08
2012-5-3,86.9,78.5,74.0,77.0,74.5,72.0,97,88,68,29.93,29.86,8,2,11,0.97
2012-5-4,85.4,76.9,72.5,77.0,73.7,70.0,97,90,73,29.92,29.84,6,1,10,0.89
2012-5-5,84.5,76.9,70.9,77.0,73.6,70.0,98,90,75,29.90,29.81,10,1,10,0.43
2012-5-6,83.0,77.4,74.9,75.0,73.8,73.0,95,88,73,29.88,29.81,8,1,11,0.07
2012-5-7,84.7,78.4,71.1,75.0,72.8,70.0,97,83,64,29.90,29.81,9,2,11,0.02
2012-5-8,87.1,79.7,72.4,77.0,74.1,70.0,92,83,66,29.91,29.82,10,2,16,0.00
2012-5-9,86.3,79.4,73.6,78.0,74.6,71.4,94,86,71,29.90,29.82,7,2,15,0.74
2012-5-10,90.8,80.4,73.6,77.0,74.2,72.0,95,82,59,29.93,29.82,7,1,10,0.01
2012-5-11,88.6,80.9,74.2,77.0,74.8,72.0,92,82,66,29.99,29.88,13,2,16,0.00
2012-5-12,93.5,83.0,75.0,78.0,74.5,71.0,93,77,52,30.01,29.93,7,2,12,0.00
2012-5-13,88.7,81.8,74.9,77.0,73.9,70.0,92,78,55,30.00,29.89,12,3,13,0.00
2012-5-14,88.3,81.1,73.2,76.0,72.7,70.0,91,76,59,29.97,29.89,11,3,15,0.00
2012-5-15,87.8,80.5,72.7,75.0,72.8,70.0,92,78,60,29.98,29.90,14,3,16,0.14
2012-5-16,87.8,79.4,73.8,76.0,73.9,71.0,94,84,64,29.97,29.88,11,3,16,0.70
2012-5-17,83.8,78.4,74.6,77.0,74.8,73.0,96,89,75,29.95,29.87,9,2,12,1.16
2012-5-18,85.2,79.4,75.2,78.0,75.5,74.0,96,88,77,29.93,29.86,12,3,15,0.58
2012-5-19,90.3,82.6,74.2,76.0,73.6,71.5,94,75,57,29.94,29.86,8,2,16,0.00
2012-5-20,87.8,81.0,75.4,76.0,73.7,72.3,92,79,62,29.99,29.90,11,3,15,0.00
2012-5-21,88.0,81.6,74.3,76.0,72.9,71.0,92,76,59,30.02,29.94,9,3,14,0.01
2012-5-22,87.9,79.4,73.2,76.0,73.7,71.0,95,83,64,30.00,29.92,13,2,14,0.05
2012-5-23,91.3,82.0,75.0,76.0,73.8,72.0,94,77,56,30.00,29.92,9,3,15,0.22
2012-5-24,88.6,81.9,74.6,74.0,71.6,68.0,89,72,52,30.01,29.94,15,4,17,0.00
2012-5-25,87.4,81.3,75.3,74.0,72.6,71.0,87,75,63,30.01,29.92,11,3,18,0.00
2012-5-26,87.3,80.0,70.8,72.0,69.7,67.0,88,72,56,29.98,29.88,10,3,13,0.00
2012-5-27,86.3,80.8,70.8,75.0,72.2,67.0,88,76,64,29.96,29.87,14,3,15,0.00
2012-5-28,87.5,80.4,73.3,75.9,72.2,69.8,91,77,58,29.96,29.88,11,2,15,0.01
2012-5-29,91.3,81.3,73.1,76.4,73.1,69.5,90,77,56,29.96,29.87,7,2,15,0.00
2012-5-30,92.9,83.4,74.4,76.0,73.9,71.0,91,74,54,29.95,29.86,7,1,11,0.00
2012-5-31,90.3,82.0,76.3,78.0,74.9,72.9,90,80,63,30.01,29.91,8,1,12,0.00
2012-6-1,94.8,84.7,75.1,77.0,74.9,72.0,91,74,53,30.04,29.95,8,2,14,0.00
2012-6-2,95.4,84.4,75.0,75.0,72.4,70.0,88,69,47,30.04,29.95,9,2,13,0.00
2012-6-3,96.0,84.5,74.0,74.0,72.3,70.0,90,69,43,30.02,29.91,7,1,9,0.00
2012-6-4,94.0,83.9,74.8,75.0,72.5,70.0,89,70,49,29.97,29.86,8,1,12,0.00
2012-6-5,94.0,83.8,72.3,74.0,71.2,68.0,88,67,45,29.98,29.90,9,2,15,0.00
2012-6-6,96.1,84.6,77.2,76.0,73.7,70.0,87,71,45,30.01,29.93,9,3,13,0.00
2012-6-8,81.6,79.9,78.5,74.0,73.4,73.0,82,80,77,29.96,29.94,2,0,2,0.00
2012-6-9,89.6,82.8,74.8,76.0,73.5,71.0,88,74,58,29.96,29.90,11,3,15,0.00
2012-6-10,88.5,82.7,73.9,76.0,74.1,70.0,89,76,64,29.97,29.90,11,3,16,0.06
2012-6-11,96.3,83.6,72.9,76.0,73.3,70.0,92,73,45,29.95,29.88,7,1,15,0.00
2012-6-12,92.4,84.7,76.2,77.0,73.8,71.0,91,71,51,29.93,29.87,11,2,17,0.00
2012-6-13,95.7,84.9,74.8,76.0,73.0,71.0,89,69,47,29.98,29.89,6,1,14,0.00
2012-6-14,89.4,83.0,74.7,76.0,73.7,70.0,90,74,59,29.99,29.93,12,3,17,0.00
2012-6-15,92.9,83.7,74.3,75.0,71.4,67.0,89,68,43,29.97,29.89,9,2,15,0.00
2012-6-16,96.5,84.3,74.6,77.0,73.7,70.0,87,72,46,29.95,29.85,9,2,15,0.00
2012-6-17,92.6,82.8,77.5,78.0,75.5,72.0,90,79,59,29.96,29.87,9,2,14,0.16
2012-6-18,89.5,83.5,77.3,76.9,75.0,73.0,90,76,60,30.00,29.89,10,2,18,0.00
2012-6-19,91.9,83.7,76.1,76.0,73.8,71.0,90,73,53,30.00,29.90,12,3,14,0.00
2012-6-20,91.5,83.6,77.2,78.0,75.5,73.0,88,77,58,29.98,29.90,12,2,13,0.06
2012-6-21,96.2,86.1,76.8,77.0,75.1,74.0,91,71,49,29.94,29.86,9,2,14,0.00
2012-6-22,94.7,85.3,76.7,75.0,73.6,72.0,86,69,49,29.98,29.89,9,2,16,0.00
2012-6-23,91.6,84.0,76.4,79.0,72.6,65.0,85,70,44,30.02,29.95,14,4,17,0.00
2012-6-24,92.0,83.4,74.6,74.0,71.7,69.0,87,69,50,30.02,29.94,15,4,18,0.00
2012-6-25,91.0,81.9,75.6,77.0,72.7,67.0,88,75,48,30.00,29.92,13,2,17,0.06
2012-6-26,90.8,82.8,74.6,78.0,74.1,72.0,91,76,59,30.01,29.93,12,2,15,0.00
2012-6-27,92.6,84.2,75.6,77.0,74.4,72.0,90,73,54,30.06,29.98,11,3,14,0.00
2012-6-28,92.1,83.2,75.1,76.0,74.0,69.0,88,75,48,30.05,29.97,13,3,18,0.02
2012-6-29,89.4,80.2,75.0,76.0,71.7,-99.9,89,78,63,30.00,29.91,11,-10,15,0.00
2012-6-30,92.2,83.3,74.2,76.0,72.9,68.0,90,72,45,30.00,29.91,15,3,18,0.00
2012-7-1,91.1,84.3,76.2,79.0,74.5,71.0,84,73,55,30.00,29.93,10,4,15,0.00
2012-7-2,88.8,81.9,76.5,79.0,76.3,74.0,91,83,70,30.00,29.92,8,3,15,0.20
2012-7-3,88.9,83.2,76.4,78.0,75.8,73.0,90,79,67,30.00,29.92,14,4,16,0.02
2012-7-4,88.8,80.5,75.0,78.0,74.5,71.0,93,82,64,29.97,29.88,11,3,18,0.42
2012-7-5,80.7,75.7,72.4,77.0,73.4,70.0,96,92,84,29.98,29.86,5,0,15,0.93
2012-7-6,89.2,82.1,72.9,78.0,75.6,71.0,96,81,66,29.98,29.91,11,3,16,0.01
2012-7-7,88.5,82.6,76.4,78.0,75.5,74.0,92,79,63,29.98,29.93,12,3,16,0.05
2012-7-8,89.0,81.5,73.8,78.0,75.0,72.0,95,81,63,29.97,29.89,12,3,16,0.17
2012-7-9,92.5,81.7,74.2,78.0,74.2,72.0,92,79,54,29.96,29.89,8,2,13,0.24
2012-7-10,92.5,83.5,75.2,79.0,74.8,72.0,93,76,51,29.99,29.89,14,3,15,0.03
2012-7-11,88.7,83.7,77.7,77.0,75.7,74.0,89,77,64,29.98,29.87,12,3,16,0.00
2012-7-12,88.1,80.9,75.8,77.0,74.9,73.0,93,82,63,29.93,29.86,10,2,16,0.64
2012-7-13,89.2,80.6,72.8,77.0,74.2,71.0,94,81,61,29.98,29.86,10,1,13,0.20
2012-7-14,91.5,83.3,74.8,78.0,74.8,72.0,94,77,56,30.03,29.93,11,3,15,0.04
2012-7-15,88.7,83.1,79.0,80.0,77.5,76.0,93,83,68,30.03,29.94,12,3,16,0.41
2012-7-16,91.4,84.8,80.0,79.0,76.5,72.0,88,77,58,30.00,29.93,10,4,17,0.00
2012-7-17,89.2,83.6,77.0,77.0,75.3,73.0,89,77,62,30.02,29.93,10,3,12,0.03
2012-7-18,87.2,80.4,75.6,78.0,75.8,73.0,94,86,68,30.03,29.95,10,2,16,1.10
2012-7-19,88.8,81.9,75.5,79.0,76.5,74.0,95,84,66,30.03,29.95,10,3,18,0.28
2012-7-20,86.5,80.5,77.4,79.0,77.1,75.0,95,89,74,29.98,29.89,7,2,15,2.03
2012-7-21,91.5,83.7,76.6,79.0,76.5,75.0,96,80,62,30.03,29.91,16,3,16,0.02
2012-7-22,89.4,83.4,77.6,80.0,77.0,75.0,94,81,66,30.06,29.98,13,4,17,0.04
2012-7-23,88.8,84.6,80.4,77.0,75.1,73.0,88,74,61,30.05,29.96,13,5,16,0.00
2012-7-24,89.0,83.1,77.5,78.0,76.4,74.0,91,80,66,30.03,29.94,14,3,16,0.11
2012-7-25,92.7,83.8,76.4,78.0,74.2,71.0,91,74,55,30.00,29.93,8,2,14,0.00
2012-7-26,89.4,82.5,74.4,78.0,74.5,71.0,88,77,61,30.01,29.94,13,3,17,0.05
2012-7-27,88.8,83.1,77.9,75.0,74.2,71.0,87,75,57,30.02,29.94,14,4,16,0.03
2012-7-28,88.6,82.8,76.7,79.0,76.4,74.0,93,81,68,29.99,29.92,13,3,16,0.20
2012-7-29,89.2,84.7,76.5,79.0,77.3,74.0,91,79,69,29.96,29.89,11,4,15,0.00
2012-7-30,88.1,82.0,77.7,79.0,77.3,75.0,93,86,71,29.94,29.86,16,4,20,0.32
2012-7-31,82.8,79.3,74.9,78.0,76.6,72.0,94,91,86,29.99,29.89,8,1,13,1.63
2012-8-1,91.4,83.4,76.4,79.0,76.0,74.0,95,79,62,29.99,29.90,11,3,15,0.01
2012-8-2,89.8,83.4,76.1,78.0,75.1,71.0,91,77,55,29.98,29.90,11,3,15,0.00
2012-8-3,88.6,81.9,76.9,78.0,73.7,-99.9,91,78,66,29.95,29.87,14,-8,16,0.01
2012-8-4,87.1,82.3,76.7,77.9,75.8,73.0,93,81,71,30.00,29.87,13,4,17,0.16
2012-8-5,91.6,84.8,80.2,78.1,76.1,73.4,86,76,57,30.02,29.95,13,4,17,0.00
2012-8-6,88.8,82.4,75.4,77.0,75.2,72.0,90,79,63,30.00,29.90,9,2,17,0.00
2012-8-7,87.4,80.2,76.7,78.0,75.6,73.0,92,86,70,29.93,29.88,7,2,11,0.04
2012-8-8,84.1,81.7,79.0,78.0,77.0,76.0,93,85,80,29.95,29.89,8,2,17,0.20
2012-8-9,95.2,84.8,75.9,78.0,75.5,71.0,95,76,50,29.94,29.87,7,1,11,0.02
2012-8-10,92.2,84.4,76.3,78.0,75.6,73.0,91,76,57,29.97,29.90,12,3,15,0.00
2012-8-11,90.1,84.0,77.0,78.0,76.0,73.0,87,77,61,29.98,29.91,12,4,15,0.00
2012-8-12,90.0,84.2,77.3,79.0,75.5,71.0,90,76,60,30.00,29.89,14,5,19,0.27
2012-8-13,87.8,81.1,74.2,79.0,75.3,72.0,93,83,68,30.00,29.92,12,2,16,0.12
2012-8-14,89.2,82.9,75.3,78.0,75.6,73.0,93,79,60,29.98,29.90,11,2,15,0.03
2012-8-15,89.1,81.6,76.3,79.0,76.6,74.0,94,85,70,29.99,29.91,12,2,15,0.46
2012-8-16,90.6,82.8,75.5,79.0,76.3,74.0,95,81,65,29.98,29.91,9,2,15,0.02
2012-8-17,87.8,81.6,76.1,80.0,76.9,73.0,92,86,74,29.98,29.89,10,2,14,0.21
2012-8-18,90.7,83.7,76.8,79.0,76.6,75.0,94,80,63,30.00,29.90,9,2,13,0.02
2012-8-19,90.6,84.6,78.9,78.0,76.4,73.0,90,77,57,30.04,29.95,10,3,13,0.00
2012-8-20,89.3,83.5,77.0,78.0,75.5,73.0,88,77,64,30.02,29.94,11,3,14,0.00
2012-8-21,86.7,81.6,76.6,79.0,76.5,74.0,92,85,74,30.00,29.92,11,2,16,0.67
2012-8-22,88.3,82.4,78.8,79.0,77.6,76.0,95,85,72,29.94,29.80,10,3,16,0.51
2012-8-23,86.2,81.3,76.3,79.0,76.8,72.0,91,86,75,29.79,29.69,16,6,20,0.39
2012-8-24,83.9,78.6,75.8,76.0,72.8,70.0,91,82,70,29.91,29.78,6,2,14,0.51
2012-8-25,91.7,79.5,74.2,79.0,74.8,72.0,97,86,56,29.91,29.81,5,1,10,0.47
2012-8-26,90.3,81.0,75.1,77.0,74.8,73.0,94,82,60,29.99,29.88,4,0,9,0.00
2012-8-27,86.6,78.8,73.5,77.0,74.3,72.0,95,86,67,30.03,29.94,8,1,10,0.13
2012-8-28,90.1,82.3,74.5,78.0,75.2,70.0,94,80,52,30.03,29.93,9,2,14,0.00
2012-8-29,89.3,82.2,75.7,77.0,74.7,73.0,93,79,59,30.00,29.90,9,2,13,0.13
2012-8-30,89.7,82.7,74.2,77.0,75.2,72.0,93,79,56,29.98,29.91,13,3,16,0.02
2012-8-31,88.8,82.4,73.8,77.0,75.1,72.0,94,79,66,29.99,29.90,9,2,14,0.02
2012-9-1,89.5,83.1,75.5,77.0,75.2,73.0,92,77,61,29.94,29.86,10,2,11,0.04
2012-9-2,91.8,83.5,76.3,78.0,76.0,74.0,93,79,60,29.93,29.83,6,1,9,0.00
2012-9-3,97.3,84.6,74.4,77.0,74.2,70.0,88,72,43,29.97,29.87,6,1,9,0.00
2012-9-4,94.7,85.1,77.0,77.0,74.5,71.0,86,72,48,29.95,29.89,6,1,10,0.00
2012-9-5,94.9,82.0,77.0,76.0,74.6,74.0,90,79,51,29.93,29.88,3,1,5,0.00
2012-9-10,81.1,75.2,78.8,74.0,64.0,-99.9,84,77,79,29.96,0.00,2,-55,8,0.00
2012-9-11,90.5,82.9,74.1,77.4,74.3,69.6,87,76,58,29.96,29.86,10,2,12,0.00
2012-9-12,91.1,82.5,74.2,77.0,73.6,66.0,89,76,44,29.92,29.82,10,2,13,0.00
2012-9-13,90.8,82.9,76.2,78.0,75.5,72.0,88,78,60,29.91,29.83,10,2,16,0.00
2012-9-14,91.8,81.8,76.0,80.0,76.3,73.0,91,83,65,29.93,29.84,7,1,11,0.12
2012-9-15,93.1,81.7,74.9,80.0,76.3,73.0,94,85,58,29.94,29.86,6,1,10,0.70
2012-9-16,90.5,82.7,74.0,78.0,75.7,73.0,96,80,62,29.93,29.86,9,2,13,0.01
2012-9-17,90.2,83.8,75.4,78.0,75.8,73.0,92,78,60,29.95,29.87,9,2,13,0.00
2012-9-18,87.8,81.6,77.0,79.0,77.1,75.0,95,86,71,29.97,29.87,10,1,17,0.78
2012-9-19,90.0,82.7,76.3,80.0,76.8,75.0,96,83,62,29.95,29.85,10,2,14,0.22
2012-9-20,90.0,83.9,76.3,78.0,76.4,75.0,94,79,63,29.91,29.78,11,2,13,0.00
2012-9-21,94.6,84.5,76.6,78.0,75.2,73.0,92,75,53,29.89,29.79,6,1,12,0.00
2012-9-22,97.1,85.2,74.8,79.0,74.5,72.0,92,72,48,29.96,29.86,10,1,11,0.00
2012-9-23,91.1,84.1,76.5,78.0,75.0,73.0,89,74,60,30.00,29.89,13,3,15,0.00
2012-9-24,90.0,83.2,76.1,77.0,75.2,72.0,90,77,64,29.96,29.85,10,2,16,0.13
2012-9-25,87.6,81.5,75.3,78.0,75.9,74.0,95,83,66,29.95,29.89,8,2,13,0.13
2012-9-26,88.8,81.4,75.6,78.0,75.8,74.0,96,83,65,29.95,29.86,10,2,13,0.32
2012-9-27,89.0,82.1,75.4,78.0,75.5,74.0,96,81,64,29.92,29.82,10,2,14,0.03
2012-9-28,90.9,82.2,74.9,77.0,75.0,72.0,93,79,60,29.91,29.82,7,1,10,0.00
2012-9-29,93.4,83.4,75.8,78.0,75.6,73.0,93,78,59,29.93,29.84,7,1,11,0.01
2012-9-30,94.4,83.1,75.3,78.0,75.2,73.0,91,78,55,29.95,29.87,6,1,10,0.31
2012-10-1,92.3,83.6,75.3,78.0,75.4,72.0,93,77,52,29.95,29.86,13,2,15,0.00
2012-10-2,89.5,80.9,76.0,77.0,75.1,74.0,94,83,62,29.98,29.90,10,2,14,0.02
2012-10-3,81.9,78.9,76.9,75.0,74.2,73.0,91,86,78,29.97,29.94,3,0,11,0.05
2012-10-4,88.3,81.4,75.0,78.0,75.2,73.0,95,82,66,29.96,29.84,11,2,16,0.07
2012-10-5,89.6,82.2,74.5,77.0,74.1,70.0,94,77,54,29.86,29.74,9,2,10,0.00
2012-10-6,93.0,80.4,74.6,76.0,73.5,71.0,92,81,48,29.80,29.71,6,1,9,1.07
2012-10-7,96.2,83.5,74.5,77.0,74.0,72.0,95,75,50,29.91,29.77,5,1,12,0.00
2012-10-8,88.4,80.9,77.3,79.0,76.1,73.0,95,85,70,29.97,29.86,6,1,8,0.47
2012-10-9,89.3,80.5,74.8,79.0,75.8,73.0,96,86,68,29.96,29.85,7,1,10,0.01
2012-10-10,88.6,82.0,74.5,79.0,75.6,73.0,95,81,65,29.92,29.82,9,2,13,0.00
2012-10-11,88.8,78.3,75.5,78.0,74.9,73.0,95,89,64,29.89,29.81,10,1,12,0.67
2012-10-12,88.4,80.2,74.9,78.2,76.2,73.0,95,88,67,29.86,29.77,9,1,15,0.34
2012-10-13,87.2,81.2,76.9,79.4,77.3,75.8,97,88,74,29.79,29.67,8,2,11,0.11
2012-10-14,87.5,81.2,77.6,79.8,77.2,74.9,96,88,73,29.71,29.61,5,1,10,0.28
2012-10-15,92.7,81.7,76.8,80.2,75.5,73.0,91,82,61,29.71,29.61,4,0,6,1.65
2012-10-16,95.8,82.5,75.9,80.0,76.4,74.0,94,82,56,29.80,29.66,12,1,15,0.02
2012-10-17,95.8,82.7,77.3,79.3,76.7,74.9,94,83,57,29.88,29.76,5,1,10,0.08
2012-10-18,89.7,82.0,76.0,79.0,76.1,73.9,95,83,63,29.89,29.78,8,2,12,0.16
2012-10-19,86.6,78.1,74.6,78.0,75.0,73.0,97,90,70,29.88,29.79,6,1,8,0.39
2012-10-20,92.2,80.0,73.4,80.0,74.1,71.0,95,83,57,29.89,29.78,8,1,13,0.07
2012-10-21,88.1,79.9,72.5,78.0,74.7,71.0,94,84,65,29.86,29.76,10,2,14,0.03
2012-10-22,90.7,80.9,73.4,78.0,74.4,72.0,95,81,60,29.82,29.73,8,1,11,0.00
2012-10-23,89.6,81.2,74.0,76.0,73.7,70.0,93,79,55,29.82,29.71,14,3,14,0.00
2012-10-24,92.6,82.4,74.1,76.0,73.8,71.0,91,76,53,29.82,29.73,5,1,10,0.00
2012-10-25,92.1,82.1,76.6,77.0,74.5,72.0,95,79,57,29.82,29.74,6,1,11,0.37
2012-10-26,90.6,80.5,75.8,81.0,76.9,74.0,96,89,67,29.81,29.72,6,1,12,1.76
2012-10-27,95.1,86.0,80.0,79.0,76.9,76.0,90,75,55,29.77,29.69,10,2,15,0.00
2012-10-28,96.2,86.1,80.8,80.0,77.1,75.0,85,75,54,29.79,29.70,5,1,13,0.00
2012-10-29,92.9,82.2,76.7,80.0,76.8,74.0,93,84,62,29.86,29.76,5,1,8,0.53
2012-10-30,94.3,83.3,75.8,81.0,76.4,74.0,96,81,58,29.93,29.82,6,1,11,0.00
2012-10-31,91.6,81.8,75.1,79.0,75.6,73.0,92,82,60,29.94,29.83,12,1,12,0.00
2012-11-1,87.1,80.8,74.5,77.0,74.9,73.0,94,83,68,29.90,29.82,9,2,9,0.00
2012-11-2,85.5,81.4,78.4,76.0,75.0,74.0,89,81,72,29.93,29.86,6,1,10,0.43
2012-11-3,88.9,81.5,74.7,78.0,75.0,73.0,93,81,64,29.94,29.85,9,2,10,0.04
2012-11-4,89.0,80.9,73.1,77.0,74.2,71.0,95,81,55,29.93,29.84,12,2,14,0.32
2012-11-5,91.0,80.2,74.2,80.0,75.5,73.0,95,86,63,29.90,29.80,6,1,10,0.20
2012-11-6,94.0,81.4,74.0,76.0,74.4,72.0,95,80,54,29.89,29.80,5,1,9,0.00
2012-11-7,95.4,82.3,73.0,77.0,73.7,71.0,93,77,54,29.89,29.78,4,1,10,0.00
2012-11-8,90.3,81.4,73.9,76.0,72.8,71.0,92,76,54,29.90,29.80,13,2,13,0.00
2012-11-9,88.8,80.9,73.2,77.0,74.1,70.0,91,80,62,29.89,29.80,10,2,12,0.00
2012-11-10,87.5,80.1,75.1,78.0,74.8,72.6,96,85,66,29.92,29.80,9,2,17,0.82
2012-11-11,86.0,78.9,75.3,78.0,75.7,73.0,96,90,73,29.91,29.82,8,1,11,0.68
2012-11-12,88.4,80.4,75.8,79.1,76.0,72.3,98,87,65,29.91,29.76,12,2,13,0.50
2012-11-13,88.8,80.1,76.2,78.0,74.8,71.9,94,84,64,29.89,29.80,10,1,13,0.04
2012-11-14,85.8,79.6,74.9,79.0,75.5,73.0,94,87,72,29.92,29.81,5,1,9,0.55
2012-11-15,88.0,80.5,73.3,77.0,74.2,71.0,95,81,59,29.89,29.80,9,2,10,0.12
2012-11-16,86.9,79.8,73.7,79.0,75.6,72.0,96,87,71,29.89,29.80,10,1,13,0.02
2012-11-17,90.6,79.7,74.4,79.0,75.1,73.0,96,86,67,29.92,29.82,5,1,10,0.10
2012-11-18,91.5,81.2,73.7,78.0,74.9,72.0,95,82,60,29.92,29.83,11,1,13,0.00
2012-11-19,91.6,77.4,73.6,78.0,73.1,71.0,93,87,62,29.90,29.82,3,0,7,0.00
2012-11-20,87.4,79.3,76.6,79.0,76.1,75.0,93,89,72,29.81,29.73,6,0,19,0.12
2012-11-21,87.6,79.9,74.4,78.0,75.5,73.0,96,87,70,29.84,29.74,5,1,7,0.24
2012-11-22,89.5,79.5,74.2,78.0,76.1,73.0,96,90,69,29.87,29.78,7,1,9,0.26
2012-11-23,90.2,78.2,73.6,78.0,74.9,72.0,97,90,64,29.91,29.80,4,1,9,4.65
2012-11-24,85.8,78.6,71.9,76.0,73.7,71.0,98,85,68,29.93,29.84,7,1,10,0.02
2012-11-25,85.7,79.8,72.6,76.0,73.7,71.0,95,82,66,30.00,29.88,8,2,12,0.00
2012-11-26,85.9,80.0,74.4,75.0,73.4,71.0,95,81,62,30.02,29.94,9,3,13,0.00
2012-11-27,86.4,79.3,73.9,78.0,74.7,72.0,96,86,68,30.01,29.90,5,1,9,0.24
2012-11-28,86.8,79.2,72.1,77.0,74.2,70.0,95,85,68,29.96,29.86,8,2,12,0.05
2012-11-29,86.5,79.6,74.0,77.0,73.0,70.0,96,81,60,29.94,29.86,9,2,11,0.10
2012-11-30,85.7,78.4,71.4,75.0,71.7,69.0,94,80,62,29.94,29.84,7,1,11,0.10
2012-12-1,82.9,76.6,71.7,77.0,72.6,70.0,96,87,76,29.91,29.82,4,1,9,0.07
2012-12-2,86.1,77.7,71.0,75.0,73.0,70.0,96,86,65,29.87,29.77,6,1,9,0.09
2012-12-3,83.3,75.3,71.9,76.0,72.6,71.0,97,91,76,29.90,29.78,11,1,17,0.91
2012-12-4,83.7,78.9,72.9,72.0,71.0,70.0,96,77,65,29.95,29.85,10,3,15,0.00
2012-12-5,84.6,77.9,73.6,74.0,71.8,68.0,91,82,68,29.95,29.84,11,2,14,0.10
2012-12-6,74.8,72.9,72.0,72.0,71.1,70.0,95,94,91,29.87,29.83,6,1,9,0.32
2012-12-7,82.1,82.0,81.6,71.0,71.0,71.0,70,70,69,29.82,29.82,9,5,10,0.00
2012-12-11,83.6,80.1,75.4,74.0,72.2,70.0,93,77,67,29.98,29.91,14,6,20,0.58
2012-12-12,86.3,79.6,74.3,77.0,72.7,69.0,93,80,63,29.99,29.91,11,3,15,0.06
2012-12-13,81.3,74.8,71.5,76.0,72.1,69.0,96,91,83,29.95,29.85,6,1,14,0.60
2012-12-14,84.6,77.4,71.9,74.0,71.4,69.0,96,82,62,29.90,29.80,8,2,12,0.02
2012-12-15,83.0,74.9,70.2,74.0,69.7,67.0,95,84,62,29.93,29.82,6,1,8,0.05
2012-12-16,83.3,75.3,69.9,73.0,69.8,68.0,96,83,60,29.94,29.86,7,1,11,0.55
2012-12-17,85.2,75.8,68.6,74.0,69.0,66.0,95,81,57,29.95,29.87,9,2,11,0.02
2012-12-18,83.5,76.6,68.4,73.0,69.9,66.0,94,80,63,29.95,29.88,9,2,12,0.00
2012-12-19,82.6,75.4,70.3,75.0,71.7,69.0,94,88,76,29.95,29.86,3,1,9,0.11
2012-12-20,82.6,76.4,70.3,73.0,70.7,69.0,94,83,68,29.96,29.87,8,2,13,0.18
2012-12-21,78.7,74.2,71.6,74.0,72.1,70.0,97,93,80,29.95,29.86,9,1,11,0.34
2012-12-22,82.0,76.1,71.3,74.0,70.4,68.0,97,83,65,29.95,29.86,9,1,12,0.01
2012-12-23,82.1,75.4,69.9,71.0,67.9,65.0,93,78,59,29.98,29.88,8,2,14,0.00
2012-12-24,83.2,75.5,67.1,71.0,68.9,65.0,94,80,64,29.97,29.87,11,2,15,0.00
2012-12-25,83.0,76.1,69.9,75.0,71.5,68.0,94,86,73,29.96,29.87,9,2,11,0.00
2012-12-26,84.2,77.5,71.1,75.0,72.1,69.0,94,84,69,29.97,29.89,12,2,13,0.03
2012-12-27,88.1,78.0,70.7,77.0,72.8,70.0,97,84,65,29.99,29.89,8,2,12,0.00
2012-12-28,84.5,78.1,70.7,74.0,71.7,69.0,93,81,63,30.01,29.91,12,2,13,0.00
2012-12-29,83.7,77.2,70.4,72.0,70.5,68.0,94,80,64,30.01,29.92,11,2,14,0.03
2012-12-30,87.3,77.1,67.7,72.0,69.2,65.0,91,78,51,30.03,29.93,6,1,10,0.00
2012-12-31,81.6,75.7,72.6,72.0,70.5,67.0,95,84,61,30.05,29.97,7,1,12,0.01
2013-1-1,82.6,76.0,70.4,74.0,71.4,68.0,97,86,71,30.03,29.94,10,2,13,0.03